PROFILE

 METAR AND TAF INFORMATION
ADDS - METARS form results

(2307 UTC 26 May 2019)
http://aviationweather.gov/metar/data/
 
TNCM 262300Z 08007KT 050V110 9999 FEW020 BKN035 28/23 Q1014 NOSIG RMK A2996
TNCM 261739Z 2618/2718 12012KT P6SM VCSH SCT020 BKN035 FM262300 10010KT P6SM FEW020 SCT060 FM270300 08008KT P6SM VCSH SCT018 FM271430 11012KT P6SM FEW020 SCT050 

 AIRPORT MAP

 RUNWAY INFORMATION
Runway 10 Runway length 7546 ft Runway width 150 ft
Runway elevation 13 ft Runway displaced threshold 0 ft Runway heading 96
Runway 28 Runway length 7546 ft Runway width 150 ft
Runway elevation 9 ft Runway displaced threshold 328 ft Runway heading 276

 AIRPORT FREQUENCIES
Type APP Name JULIANA AP Frequency 128.95 MHZ
Type TWR Name JULIANA TW Frequency 118.7 MHZ

 AIRPORT NEAR NAVIGATION AIDS
Type NDB Name St.mMarten Frequency 284 KHZ
Type VOR-DME Name St.mMarten Frequency 113000 KHZ